[[{"header":{"parameterUnit":"m.s-1","parameterCategory":1,"la1":30.2991,"la2":30.254,"lo1":-89.0895,"lo2":-89.0444,"dy":0.0017,"dx":0.0017,"nx":28,"ny":28,"refTime":"2023-10-09T09:00:00:Z","depth":0,"parameterNumber":2,"parameterNumberName":"U-component_of_WINDS"},"data":[0,0,0,0,0,0,0,0,0,0,0,0,0,0,0,0,0,0,0,0,0,0,0,0,0,0,0,0,0,0,0,0,0,0,0,0,0,0,0,0,0,0,0,0,0,0,0,0,0,0,0,0,0,0,0,0,0,0,-0.9617,-0.9618,0,-0.9703,-0.9704,-0.9705,-0.9733,-0.9733,-0.9733,-0.9732,-0.9819,-0.9822,-0.9824,0,0,0,0,0,0,0,0,0,0,0,0,0,-0.9477,-0.948,-0.9617,-0.9618,-0.9619,-0.9702,-0.9704,-0.9705,-0.9733,-0.9733,-0.9732,-0.9732,-0.9818,-0.9821,-0.9824,0,0,0,0,0,0,0,0,0,0,0,0,0,-0.9548,-0.948,-0.9617,-0.9643,-0.9647,-0.9702,-0.9704,-0.9705,-0.9733,-0.9733,-0.9732,-0.9732,-0.9817,-0.9821,-0.9825,-0.986,0,0,-0.9837,-0.9839,0,0,0,0,0,0,0,0,-0.9544,-0.9553,-0.9638,-0.9642,-0.9645,-0.9707,-0.9686,-0.9757,-0.9734,-0.97,-0.9732,-0.9732,-0.9782,-0.9789,-0.9806,-0.9864,-0.9868,-0.9837,-0.984,-0.9841,-0.9843,0,0,0,0,0,0,0,-0.9539,-0.9549,-0.9651,-0.964,-0.9644,-0.9651,-0.966,-0.97,-0.9743,-0.9703,-0.9706,-0.9715,-0.9784,-0.9802,-0.9808,-0.9869,-0.9837,-0.9841,-0.9843,-0.9845,-0.996,-0.9961,0,0,0,0,0,0,-0.953,-0.9545,-0.9648,-0.9653,-0.9592,-0.9654,-0.9664,-0.9688,-0.9743,-0.9751,-0.9716,-0.9716,-0.9796,-0.9804,-0.9811,-0.9856,-0.9841,-0.9845,-0.9847,-0.9959,-0.996,-0.9961,0,0,0,0,0,0,-0.9527,-0.9539,-0.9645,-0.96,-0.9614,-0.9657,-0.9683,-0.969,-0.9708,-0.9752,-0.976,-0.9727,-0.9796,-0.9806,-0.9848,-0.9859,-0.9847,-0.9851,-0.9958,-0.996,-0.996,-0.9945,0,0,0,0,0,0,-0.9522,-0.9537,-0.9551,-0.96,-0.9616,-0.968,-0.9683,-0.9692,-0.9715,-0.9716,-0.9764,-0.9772,-0.9796,-0.9842,-0.9852,-0.9865,-0.9854,-0.9958,-0.9959,-0.996,-0.9945,-0.9945,-0.9946,0,0,0,0,0,-0.9517,-0.9543,-0.9552,-0.9564,-0.9635,-0.968,-0.9689,-0.9717,-0.9716,-0.973,-0.9758,-0.977,-0.9857,-0.9846,-0.9857,-0.9871,-0.9957,-0.9959,-0.996,-0.9944,-0.9945,-0.9946,0,0,0,0,0,0,-0.9494,-0.955,-0.956,-0.9603,-0.9637,-0.9685,-0.9704,-0.9717,-0.9752,-0.9752,-0.9784,-0.9795,-0.9834,-0.9857,-0.9844,-0.9908,-0.9907,-0.9911,-0.9892,-0.9893,-0.9893,-0.9887,-0.9857,0,0,0,0,0,-0.9494,-0.9527,-0.9574,-0.9607,-0.9624,-0.9661,-0.9682,-0.97,-0.9736,-0.975,-0.9782,-0.9816,-0.9851,-0.9873,-0.9908,-0.9948,-0.9959,-0.9964,-0.9965,-0.9965,-0.9968,-0.999,-0.9993,-0.9966,-0.9966,-0.9966,0,0,-0.9494,-0.9529,-0.9548,-0.9603,-0.9632,-0.9664,-0.9672,-0.9707,-0.9731,-0.9755,-0.9797,-0.9821,-0.9862,-0.9903,-0.9923,-0.9923,-0.9978,-0.9967,-0.9967,-0.9969,-0.9992,-0.9995,-0.9997,-0.9967,-0.9967,-0.9967,0,0,-0.9511,-0.9541,-0.9572,-0.96,-0.9643,-0.9667,-0.9675,-0.9721,-0.9738,-0.9781,-0.9799,-0.9829,-0.9888,-0.9916,-0.9938,-0.9966,-0.9978,-0.9976,-0.9979,-1.0001,-1.0003,-1.0005,-1.0015,-1.0018,-0.9979,-0.9979,-0.9979,0,-0.9506,-0.9556,-0.9586,-0.9619,-0.9643,-0.9667,-0.9698,-0.9724,-0.9775,-0.9791,-0.9791,-0.9866,-0.9895,-0.9943,-0.995,-0.9967,-0.9976,-0.9971,-1.0001,-1.0003,-1.0005,-1.0015,-1.0018,-0.9978,-0.9978,-0.9979,-0.9979,0,-0.9547,-0.9582,-0.9601,-0.9651,-0.9677,-0.9709,-0.9743,-0.9766,-0.9782,-0.9806,-0.9849,-0.9884,-0.9926,-0.9939,-0.9955,-0.999,-0.9989,-0.9994,-0.9994,-1.0007,-1.0016,-1.002,-0.9978,-0.9978,-0.9978,-0.9978,0,0,-0.9551,-0.9617,-0.9624,-0.9646,-0.9695,-0.9723,-0.9756,-0.9797,-0.9816,-0.9851,-0.9879,-0.9929,-0.9935,-0.996,-0.9979,-0.9998,-1.0017,-1.0002,-1.0003,-1.0003,-1.0057,-1.0051,-1.0055,-1.0026,-1.0027,-1.0027,-1.0053,0,-0.9574,-0.9634,-0.9662,-0.9709,-0.9741,-0.9765,-0.9793,-0.9826,-0.985,-0.9881,-0.9907,-0.9942,-0.9947,-0.9962,-0.9982,-1.001,-1.0028,-1.0009,-1.0052,-1.0053,-1.004,-1.006,-1.0055,-1.0077,-1.0057,-1.0057,-1.0058,0,-0.9608,-0.9643,-0.9694,-0.974,-0.9754,-0.9779,-0.9819,-0.9849,-0.9886,-0.9902,-0.993,-0.9949,-0.9984,-0.9982,-1.0031,-1.0017,-1.0037,-1.0053,-1.0055,-1.0059,-1.0056,-1.0064,-1.0085,-1.0088,-1.0064,-1.0063,-1.0063,0,-0.9605,-0.9666,-0.9704,-0.9723,-0.9776,-0.9794,-0.9817,-0.9854,-0.9877,-0.9912,-0.9928,-0.9966,-0.9987,-1.0017,-1.0045,-1.0041,-1.0091,-1.0091,-1.0105,-1.0104,-1.0114,-1.0113,-1.0137,-1.0127,-1.0127,-1.0127,-1.0127,0,-0.9627,-0.9657,-0.9703,-0.9727,-0.9761,-0.9792,-0.9825,-0.985,-0.9883,-0.9912,-0.9934,-0.996,-0.9997,-1.0028,-1.005,-1.0087,-1.0096,-1.011,-1.0116,-1.0108,-1.0106,-1.012,-1.0119,-1.0128,-1.0128,-1.0128,-1.0127,0,-0.963,-0.9662,-0.9705,-0.9752,-0.9765,-0.9788,-0.9829,-0.9852,-0.9877,-0.9913,-0.9923,-0.9962,-1.0,-1.0031,-1.008,-1.0095,-1.0133,-1.014,-1.012,-1.0123,-1.0135,-1.0133,-1.0169,-1.0175,-1.0161,-1.0161,-1.0161,0,-0.9641,-0.9665,-0.9715,-0.9736,-0.9759,-0.9792,-0.9816,-0.9848,-0.9871,-0.9916,-0.9934,-0.9973,-1.0006,-1.0065,-1.0097,-1.0135,-1.0142,-1.0152,-1.0148,-1.0139,-1.0142,-1.014,-1.0142,-1.0152,-1.0152,-1.0152,-1.0152,0,-0.9658,-0.9673,-0.9706,-0.9745,-0.9773,-0.9805,-0.9838,-0.9854,-0.9892,-0.9917,-0.9956,-0.9981,-1.0031,-1.0069,-1.0111,-1.0134,-1.0149,-1.0154,-1.0159,-1.015,-1.0138,-1.0144,-1.012,-1.0152,-1.0152,-1.0152,-1.0152,-1.0152,-0.9665,-0.9687,-0.9726,-0.9762,-0.9791,-0.9821,-0.9845,-0.9873,-0.9906,-0.9949,-0.9966,-1.0005,-1.0043,-1.01,-1.0123,-1.0154,-1.0157,-1.0164,-1.0166,-1.0167,-1.0165,-1.0133,-1.0162,-1.0162,-1.0162,-1.0162,-1.0162,0,-0.9683,-0.9709,-0.9742,-0.9788,-0.9816,-0.9828,-0.9865,-0.9888,-0.9923,-0.9956,-0.9988,-1.0032,-1.007,-1.0105,-1.0144,-1.0162,-1.017,-1.0171,-1.017,-1.0175,-1.0162,-1.0153,-1.0164,-1.0164,-1.0164,-1.0164,-1.0164,-1.0164,-0.9695,-0.9733,-0.9752,-0.9804,-0.983,-0.9869,-0.9889,-0.9917,-0.9944,-0.9992,-1.0023,-1.0046,-1.0081,-1.0123,-1.0157,-1.0167,-1.018,-1.0179,-1.019,-1.0177,-1.0176,-1.0176,-1.0168,-1.0182,-1.0182,-1.0202,-1.0202,-1.0202]},{"header":{"parameterUnit":"m.s-1","parameterCategory":1,"la1":30.2991,"la2":30.254,"lo1":-89.0895,"lo2":-89.0444,"dy":0.0017,"dx":0.0017,"nx":28,"ny":28,"refTime":"2023-10-09T09:00:00:Z","depth":0,"parameterNumber":3,"parameterNumberName":"V-component_of_WINDS"},"data":[0,0,0,0,0,0,0,0,0,0,0,0,0,0,0,0,0,0,0,0,0,0,0,0,0,0,0,0,0,0,0,0,0,0,0,0,0,0,0,0,0,0,0,0,0,0,0,0,0,0,0,0,0,0,0,0,0,0,-1.8243,-1.8243,0,-1.8247,-1.8247,-1.8247,-1.8235,-1.8235,-1.8234,-1.8234,-1.8237,-1.8237,-1.8238,0,0,0,0,0,0,0,0,0,0,0,0,0,-1.8225,-1.8226,-1.8243,-1.8243,-1.8244,-1.8247,-1.8247,-1.8247,-1.8235,-1.8235,-1.8234,-1.8234,-1.8237,-1.8237,-1.8238,0,0,0,0,0,0,0,0,0,0,0,0,0,-1.8232,-1.8226,-1.8243,-1.8238,-1.8238,-1.8247,-1.8247,-1.8247,-1.8235,-1.8235,-1.8234,-1.8234,-1.8237,-1.8237,-1.8238,-1.8252,0,0,-1.824,-1.824,0,0,0,0,0,0,0,0,-1.8231,-1.8232,-1.8239,-1.8238,-1.8238,-1.824,-1.8242,-1.8249,-1.8235,-1.8236,-1.8234,-1.8233,-1.8238,-1.8239,-1.8241,-1.8252,-1.8252,-1.824,-1.824,-1.824,-1.824,0,0,0,0,0,0,0,-1.8231,-1.8232,-1.8245,-1.8239,-1.8238,-1.8235,-1.8235,-1.8243,-1.824,-1.8236,-1.8235,-1.8236,-1.8238,-1.824,-1.824,-1.8253,-1.824,-1.824,-1.8241,-1.8241,-1.8275,-1.8276,0,0,0,0,0,0,-1.8231,-1.8232,-1.8245,-1.8245,-1.8233,-1.8236,-1.8236,-1.824,-1.824,-1.824,-1.8236,-1.8235,-1.8239,-1.824,-1.8241,-1.8257,-1.824,-1.8241,-1.8241,-1.8275,-1.8275,-1.8276,0,0,0,0,0,0,-1.8231,-1.8232,-1.8244,-1.8238,-1.8239,-1.8237,-1.8241,-1.824,-1.8242,-1.824,-1.8239,-1.8239,-1.8239,-1.824,-1.8249,-1.8256,-1.8241,-1.8242,-1.8274,-1.8275,-1.8276,-1.8289,0,0,0,0,0,0,-1.823,-1.8232,-1.8238,-1.8238,-1.824,-1.8253,-1.8241,-1.8241,-1.8243,-1.8242,-1.8242,-1.8242,-1.8238,-1.8248,-1.825,-1.8257,-1.8242,-1.8273,-1.8274,-1.8275,-1.8288,-1.829,-1.8292,0,0,0,0,0,-1.823,-1.8242,-1.8239,-1.824,-1.8247,-1.8254,-1.8255,-1.8251,-1.8244,-1.8249,-1.8248,-1.8242,-1.8256,-1.8249,-1.8251,-1.8259,-1.8273,-1.8274,-1.8275,-1.8287,-1.829,-1.8292,0,0,0,0,0,0,-1.8243,-1.8242,-1.8238,-1.8251,-1.8253,-1.8252,-1.8259,-1.8254,-1.8257,-1.8256,-1.825,-1.8251,-1.8261,-1.8261,-1.8254,-1.8272,-1.8263,-1.8265,-1.8272,-1.8274,-1.8276,-1.8276,-1.8243,0,0,0,0,0,-1.8247,-1.8253,-1.8252,-1.8264,-1.8265,-1.8262,-1.8264,-1.8261,-1.8262,-1.8263,-1.8262,-1.8264,-1.8268,-1.8271,-1.8275,-1.8288,-1.8288,-1.8294,-1.8296,-1.8298,-1.8299,-1.8305,-1.8308,-1.828,-1.828,-1.828,0,0,-1.8257,-1.8257,-1.8261,-1.8266,-1.8267,-1.8273,-1.8262,-1.8269,-1.8273,-1.8264,-1.8273,-1.8272,-1.8273,-1.8284,-1.8289,-1.8285,-1.8307,-1.83,-1.8301,-1.8301,-1.8306,-1.8309,-1.8311,-1.8281,-1.828,-1.828,0,0,-1.8276,-1.8277,-1.8286,-1.8287,-1.8289,-1.8286,-1.8289,-1.8289,-1.8288,-1.8297,-1.8289,-1.8294,-1.8302,-1.8303,-1.8305,-1.8323,-1.8318,-1.8325,-1.8336,-1.8342,-1.8344,-1.8346,-1.8352,-1.8354,-1.8326,-1.8326,-1.8326,0,-1.8287,-1.8296,-1.8291,-1.8299,-1.8301,-1.8293,-1.8301,-1.8302,-1.8305,-1.8307,-1.8301,-1.8311,-1.8311,-1.8322,-1.8326,-1.8328,-1.833,-1.8325,-1.8344,-1.8346,-1.8347,-1.8353,-1.8355,-1.8327,-1.8327,-1.8327,-1.8327,0,-1.8309,-1.8315,-1.8322,-1.8325,-1.8328,-1.8336,-1.8332,-1.8335,-1.8331,-1.833,-1.8338,-1.8338,-1.8341,-1.8344,-1.834,-1.8354,-1.8351,-1.8345,-1.8336,-1.8351,-1.8356,-1.8358,-1.8328,-1.8328,-1.8328,-1.8328,0,0,-1.8337,-1.8336,-1.8339,-1.834,-1.834,-1.8345,-1.8352,-1.8355,-1.8358,-1.836,-1.8365,-1.8372,-1.8366,-1.8368,-1.8365,-1.837,-1.8383,-1.8363,-1.8363,-1.8366,-1.8397,-1.8401,-1.8403,-1.838,-1.838,-1.8381,-1.8396,0,-1.8355,-1.8368,-1.8363,-1.8376,-1.8381,-1.8373,-1.8379,-1.838,-1.8378,-1.8382,-1.838,-1.8384,-1.8377,-1.8378,-1.8383,-1.8381,-1.8389,-1.838,-1.8384,-1.8384,-1.8383,-1.8406,-1.841,-1.8425,-1.8398,-1.8399,-1.8399,0,-1.8378,-1.8381,-1.8394,-1.8393,-1.8395,-1.84,-1.8402,-1.8406,-1.8407,-1.8405,-1.8407,-1.8402,-1.8408,-1.8399,-1.8408,-1.8401,-1.8403,-1.8402,-1.8402,-1.8402,-1.8392,-1.8406,-1.843,-1.8432,-1.8402,-1.8402,-1.8402,0,-1.8396,-1.8403,-1.8411,-1.8412,-1.8411,-1.8415,-1.8415,-1.8415,-1.8417,-1.8419,-1.842,-1.8423,-1.8424,-1.8426,-1.8422,-1.8416,-1.843,-1.8421,-1.8429,-1.8429,-1.8432,-1.8431,-1.8456,-1.8434,-1.8434,-1.8434,-1.8434,0,-1.8417,-1.8425,-1.8419,-1.8424,-1.8432,-1.8427,-1.8436,-1.8435,-1.8434,-1.8439,-1.8432,-1.8436,-1.8431,-1.8434,-1.8431,-1.8438,-1.8439,-1.8437,-1.8436,-1.8437,-1.8437,-1.8438,-1.8436,-1.8434,-1.8434,-1.8434,-1.8434,0,-1.8438,-1.8435,-1.8443,-1.8442,-1.8441,-1.8447,-1.8446,-1.845,-1.8448,-1.8453,-1.8454,-1.845,-1.8454,-1.845,-1.8453,-1.8451,-1.846,-1.8458,-1.846,-1.8459,-1.8466,-1.8465,-1.8491,-1.8494,-1.8471,-1.8471,-1.8471,0,-1.8451,-1.8457,-1.8456,-1.8458,-1.8458,-1.8462,-1.8464,-1.8459,-1.8461,-1.8462,-1.8466,-1.8469,-1.8471,-1.8477,-1.8474,-1.8476,-1.8474,-1.8483,-1.8474,-1.8475,-1.8473,-1.8472,-1.8473,-1.8484,-1.8485,-1.8485,-1.8485,0,-1.8475,-1.8472,-1.8475,-1.8478,-1.848,-1.8481,-1.8482,-1.8485,-1.8479,-1.8482,-1.8485,-1.8487,-1.849,-1.8493,-1.8494,-1.8494,-1.8488,-1.8488,-1.8489,-1.849,-1.8491,-1.849,-1.8464,-1.8487,-1.8487,-1.8487,-1.8487,-1.8487,-1.8492,-1.8496,-1.8496,-1.8499,-1.8499,-1.85,-1.8503,-1.8501,-1.8504,-1.8506,-1.8503,-1.8507,-1.8507,-1.8508,-1.8508,-1.8511,-1.8507,-1.8509,-1.851,-1.851,-1.8511,-1.8491,-1.8511,-1.8511,-1.8511,-1.8511,-1.8511,0,-1.8514,-1.8513,-1.8516,-1.8517,-1.852,-1.8514,-1.8515,-1.8517,-1.8521,-1.8521,-1.8523,-1.8526,-1.8529,-1.8526,-1.8528,-1.8531,-1.8528,-1.8531,-1.8531,-1.8531,-1.8515,-1.8513,-1.8533,-1.8533,-1.8533,-1.8533,-1.8533,-1.8533,-1.8526,-1.8532,-1.853,-1.8537,-1.8536,-1.8539,-1.854,-1.8541,-1.854,-1.8545,-1.8547,-1.8545,-1.8544,-1.8545,-1.8547,-1.8546,-1.8547,-1.8551,-1.8549,-1.8534,-1.8532,-1.853,-1.8528,-1.8551,-1.8551,-1.8564,-1.8564,-1.8564]}]]